Wind_Speed
7 7 7 7 7 8 8 8 9 9 8 8 7 6 5 5 4 4 4 4 4 5 4 4 4 4 4 4 4 4 4 5 4 4 4 5 5 5 5 4 4 4 3
7 7 7 7 8 8 8 8 8 7 8 7 7 6 6 5 4 4 4 4 3 4 4 4 4 4 4 4 4 4 4 4 4 4 4 4 5 4 5 5 4 4 4
7 7 7 7 7 7 7 8 7 7 7 7 6 5 5 5 5 4 4 3 3 3 3 4 4 4 4 4 4 4 4 4 4 4 4 4 4 4 5 5 5 4 4
8 8 7 7 7 7 7 7 7 7 7 6 5 5 5 4 4 3 3 3 2 2 3 3 3 3 4 4 4 4 5 4 4 5 5 4 4 4 4 5 4 4 4
9 8 7 8 8 8 7 7 6 6 5 5 4 4 4 3 2 2 2 2 2 1 2 2 2 3 3 4 4 4 4 4 5 5 5 5 4 4 5 5 5 4 5
9 9 9 8 7 7 7 7 6 6 5 4 3 3 3 2 2 1 1 2 2 1 1 2 2 3 3 4 4 4 4 4 4 5 5 5 5 5 5 5 5 5 6
9 9 9 8 7 7 7 6 5 5 4 3 3 3 2 1 1 1 1 2 2 1 2 2 3 3 4 4 4 5 5 5 5 5 5 5 6 6 6 6 6 6 6
9 8 8 7 7 7 6 5 5 4 4 3 2 1 1 1 1 2 3 3 2 2 3 3 3 4 5 5 5 5 6 6 6 6 6 6 6 7 6 6 6 6 6
8 7 8 7 7 6 5 5 4 3 2 2 1 0 1 1 2 2 3 3 3 4 4 4 4 5 5 6 5 6 6 7 7 7 7 7 7 7 7 6 6 7 7
8 7 7 7 6 6 5 4 4 2 2 1 2 2 2 2 3 3 4 4 4 5 5 5 6 6 7 7 7 7 7 7 7 8 8 8 8 8 8 8 8 8 8
8 8 7 7 6 6 5 4 3 3 3 2 2 2 3 3 3 4 4 5 5 5 5 6 6 7 8 7 8 8 8 8 9 9 9 9 9 9 9 10 9 9 9
9 8 7 7 6 5 5 4 4 4 3 3 3 3 3 3 4 4 5 5 5 6 6 7 8 7 8 8 8 9 9 9 9 10 9 9 10 10 11 11 11 10 9
9 8 8 7 5 5 5 5 4 4 4 3 3 4 4 4 5 5 5 5 6 6 7 8 8 8 8 8 8 8 8 9 10 10 11 10 11 11 11 12 11 11 11
9 9 8 7 6 5 5 5 5 4 4 4 4 4 4 5 5 6 6 6 7 7 7 8 8 9 9 9 9 8 9 9 10 10 11 12 12 12 12 12 12 12 12
8 8 8 8 6 5 5 5 5 5 4 4 3 4 4 5 6 6 6 7 7 8 8 8 9 9 10 9 10 10 10 11 10 10 11 11 12 12 12 12 12 12 11
7 8 7 7 6 6 6 6 6 5 5 5 4 4 5 6 6 7 7 7 7 8 9 9 10 10 10 10 10 11 11 12 12 11 12 12 13 13 13 12 12 13 12
7 8 7 7 7 6 6 7 6 5 5 5 5 5 6 7 7 7 7 8 8 9 10 10 10 10 10 11 11 12 12 13 13 13 13 13 14 14 14 14 14 14 14
8 8 7 7 7 7 7 7 6 6 6 6 6 6 7 7 7 8 8 9 9 9 10 11 12 11 11 12 12 13 13 13 14 15 14 14 14 15 15 15 15 16 15
8 8 7 8 7 7 6 7 7 7 7 7 7 7 7 8 8 8 8 9 9 10 11 11 12 13 13 13 13 14 14 14 14 15 15 15 15 16 16 16 16 16 16
8 8 8 8 7 7 7 7 7 8 8 8 7 8 7 8 8 8 9 9 9 10 11 12 13 13 14 14 14 15 15 15 15 15 14 14 15 15 16 17 17 17 17
8 8 8 8 8 7 7 7 7 8 8 8 7 8 8 9 9 9 9 9 10 11 12 12 12 13 13 14 14 14 15 15 15 16 15 15 15 15 15 16 17 18 18
8 9 9 8 8 8 8 8 7 8 8 8 8 8 9 9 10 10 10 10 10 11 12 12 13 13 13 13 13 14 14 15 16 17 17 17 17 17 17 17 18 18 18
8 9 9 8 8 9 8 8 8 8 9 9 9 10 10 10 10 11 11 11 11 11 12 12 12 13 13 13 14 14 15 15 16 17 18 18 18 18 19 19 19 19 20
8 8 9 9 9 9 9 9 10 10 9 10 10 11 11 11 11 11 11 11 11 12 12 12 12 13 13 14 14 14 15 16 17 17 18 19 19 19 19 19 19 19 20
9 9 9 9 10 10 10 10 11 11 11 12 11 12 12 12 12 11 12 12 13 13 13 12 13 13 14 15 15 15 15 16 17 18 18 19 20 20 20 19 19 19 20
9 10 10 10 10 10 10 11 12 12 12 13 12 13 13 13 12 13 13 14 14 13 13 13 12 13 13 14 15 15 16 17 17 17 18 18 18 18 19 19 19 19 19
Wind_Direction
63 67 68 69 73 76 77 81 87 89 94 97 100 109 109 112 119 124 127 139 151 157 164 171 175 171 177 184 186 189 192 193 199 205 206 201 202 208 210 202 201 200 195
56 60 67 74 78 77 76 81 85 89 93 97 101 103 110 113 110 119 126 132 149 157 165 174 177 175 186 194 198 199 200 206 209 210 211 201 204 210 208 204 202 204 199
59 60 65 75 80 79 78 79 84 91 97 97 97 98 107 114 118 121 128 135 143 154 167 170 182 187 195 203 208 205 210 218 216 217 212 202 207 209 205 205 204 203 198
65 65 67 71 73 76 75 77 84 93 98 102 102 101 105 116 126 132 133 139 144 164 182 185 194 204 207 212 212 211 215 218 218 217 215 211 211 203 199 197 199 205 209
65 68 70 73 68 70 71 76 82 89 94 100 105 108 108 117 136 143 157 173 175 185 185 192 193 211 224 232 227 219 215 214 224 223 217 216 214 209 209 206 204 209 217
62 63 67 71 72 72 76 80 82 82 83 88 92 98 108 119 142 173 201 215 221 193 178 190 199 217 237 240 229 228 222 223 229 229 226 222 218 216 217 219 216 216 224
65 62 64 67 72 77 78 77 80 83 84 83 84 87 101 128 162 215 229 226 224 226 223 220 230 236 241 236 229 228 231 238 234 238 239 232 226 225 223 225 228 227 230
63 62 64 65 67 68 70 72 70 77 81 84 89 87 80 208 229 246 237 234 236 241 244 249 249 240 239 238 237 240 237 245 242 239 240 237 233 227 226 229 232 233 235
56 57 58 57 60 59 55 57 61 66 67 58 45 350 273 283 280 266 255 256 255 251 253 260 254 249 245 241 241 243 241 247 247 243 239 239 235 231 231 232 233 234 238
50 49 50 49 50 53 53 48 52 55 39 18 348 322 291 280 285 277 266 266 266 254 253 259 260 256 253 249 246 245 243 246 245 246 244 240 239 234 235 236 235 235 237
44 45 45 46 45 47 46 36 27 25 13 1 335 303 288 285 282 279 272 264 264 259 254 258 263 258 255 252 246 247 246 247 245 243 245 242 240 238 237 237 239 238 238
41 42 39 42 42 41 33 23 3 1 356 350 333 311 293 285 278 276 272 266 267 262 256 258 260 259 258 255 251 251 250 245 245 244 246 246 242 243 244 241 242 242 239
35 38 38 40 38 31 22 16 359 346 342 335 325 308 297 287 277 271 269 266 263 256 255 257 258 260 252 251 250 255 250 246 247 247 246 247 242 245 247 245 243 243 242
32 30 31 29 24 18 9 359 352 342 331 326 319 309 298 291 285 276 274 268 260 255 255 260 260 256 250 248 250 251 249 249 253 252 250 250 247 246 246 244 241 242 244
27 27 24 19 10 4 360 354 350 343 327 322 318 317 307 295 289 283 283 274 262 256 256 260 260 259 257 252 252 249 248 250 254 252 254 255 255 251 246 244 240 240 244
22 22 20 19 12 5 358 352 348 340 332 331 333 325 314 303 291 285 283 277 267 260 261 260 259 260 259 255 251 251 250 252 251 253 254 254 256 250 246 248 243 243 247
19 17 15 13 10 10 6 2 3 355 343 335 330 318 310 306 296 289 284 280 277 272 267 264 262 264 262 260 257 255 253 252 253 254 254 253 253 248 246 247 247 247 250
19 16 13 10 7 5 1 0 357 350 342 333 328 320 311 308 304 297 289 285 282 278 273 269 269 270 265 263 260 258 257 254 253 253 253 254 251 248 248 248 248 248 251
13 12 11 10 6 4 358 353 350 343 340 335 331 327 320 313 308 303 295 288 284 280 276 273 271 270 267 264 261 258 253 252 252 253 254 254 251 250 249 249 249 250 251
9 7 6 5 0 359 355 348 340 337 334 333 331 332 326 321 316 309 301 293 285 281 279 277 274 271 270 266 263 260 257 253 251 253 254 253 252 252 250 249 250 251 253
4 4 2 359 355 352 349 346 337 334 334 334 333 331 327 323 318 311 305 301 292 287 284 283 278 273 272 270 265 258 254 254 251 251 250 251 251 252 253 253 253 254 254
359 359 357 352 348 346 346 344 340 338 335 335 333 331 328 325 319 311 308 306 300 294 290 286 279 276 272 269 265 263 259 257 254 252 251 252 251 251 252 254 255 255 254
350 351 350 344 344 344 341 339 335 334 333 331 327 325 326 323 316 313 310 306 303 300 293 288 284 280 275 272 268 264 262 259 256 255 254 254 254 254 254 255 256 256 257
345 345 344 343 342 343 341 337 331 327 327 325 322 322 325 325 319 313 311 309 306 305 298 290 283 280 276 273 269 266 264 262 260 257 258 259 257 256 256 258 259 259 261
341 342 342 341 341 341 336 332 329 327 327 326 323 321 320 323 323 320 315 310 307 305 300 293 286 282 280 275 272 270 268 265 264 261 260 259 257 256 257 258 259 260 262
336 338 341 340 336 336 334 329 328 329 326 325 322 320 318 318 319 321 318 313 310 309 306 298 288 285 283 280 278 275 272 268 265 263 261 260 258 256 256 257 258 260 261
Height
5872 5871 5870 5870 5870 5871 5871 5871 5871 5872 5872 5873 5874 5875 5876 5877 5878 5879 5880 5881 5881 5882 5883 5884 5885 5886 5887 5888 5889 5890 5890 5891 5892 5893 5894 5894 5895 5895 5896 5897 5897 5898 5899
5873 5872 5872 5871 5871 5872 5871 5872 5872 5873 5873 5874 5875 5876 5877 5878 5879 5880 5880 5881 5882 5883 5883 5884 5885 5886 5887 5888 5888 5889 5890 5891 5892 5893 5893 5894 5894 5895 5895 5896 5897 5898 5898
5874 5873 5873 5873 5873 5873 5873 5873 5873 5873 5874 5875 5876 5877 5877 5878 5879 5880 5880 5881 5882 5883 5884 5884 5885 5886 5887 5888 5888 5889 5890 5891 5891 5892 5893 5894 5894 5895 5895 5896 5897 5897 5898
5874 5874 5874 5874 5874 5873 5873 5874 5874 5874 5875 5875 5876 5877 5878 5879 5879 5880 5881 5882 5882 5883 5884 5884 5885 5886 5887 5888 5888 5889 5890 5890 5891 5892 5893 5893 5894 5895 5895 5896 5897 5897 5898
5875 5875 5875 5875 5874 5874 5874 5875 5875 5875 5875 5876 5877 5877 5878 5879 5879 5880 5881 5882 5882 5883 5884 5884 5885 5886 5887 5887 5888 5889 5889 5890 5891 5891 5892 5893 5894 5894 5895 5896 5896 5897 5897
5877 5876 5876 5875 5875 5875 5875 5875 5876 5876 5876 5876 5877 5877 5878 5879 5879 5880 5881 5882 5882 5883 5884 5884 5885 5886 5886 5887 5888 5888 5889 5890 5890 5891 5892 5892 5893 5894 5894 5895 5896 5896 5897
5878 5877 5877 5876 5876 5876 5876 5876 5876 5876 5877 5877 5877 5877 5878 5879 5879 5880 5880 5881 5882 5882 5883 5884 5884 5885 5886 5886 5887 5888 5888 5889 5890 5890 5891 5892 5892 5893 5894 5894 5895 5895 5896
5879 5878 5877 5877 5876 5876 5876 5876 5877 5877 5877 5877 5877 5878 5878 5878 5879 5879 5880 5880 5881 5882 5882 5883 5884 5884 5885 5885 5886 5887 5887 5888 5889 5889 5890 5891 5891 5892 5893 5893 5894 5894 5895
5880 5879 5878 5877 5877 5877 5877 5877 5877 5877 5877 5877 5877 5877 5878 5878 5878 5878 5879 5880 5880 5881 5882 5882 5883 5883 5884 5884 5885 5886 5886 5887 5887 5888 5889 5889 5890 5891 5892 5892 5893 5894 5894
5881 5880 5879 5878 5878 5877 5877 5877 5877 5877 5877 5877 5877 5877 5877 5877 5877 5878 5878 5878 5879 5879 5880 5881 5881 5882 5882 5883 5884 5884 5885 5886 5886 5887 5887 5888 5889 5890 5890 5891 5892 5892 5893
5882 5881 5880 5879 5878 5878 5878 5877 5877 5876 5876 5876 5876 5876 5876 5876 5877 5877 5877 5877 5877 5878 5879 5879 5880 5880 5881 5881 5882 5883 5883 5884 5885 5885 5886 5886 5887 5888 5889 5890 5890 5891 5892
5882 5881 5880 5879 5879 5878 5878 5877 5876 5876 5876 5876 5875 5875 5875 5875 5876 5875 5875 5876 5876 5876 5877 5877 5878 5878 5879 5880 5880 5881 5882 5882 5883 5884 5884 5885 5885 5886 5887 5888 5889 5889 5890
5883 5881 5880 5879 5878 5878 5877 5877 5876 5875 5875 5875 5875 5874 5874 5874 5874 5874 5874 5874 5874 5874 5875 5875 5876 5876 5877 5878 5878 5879 5879 5880 5881 5882 5882 5883 5884 5885 5885 5886 5887 5887 5888
5883 5882 5881 5880 5879 5878 5877 5877 5876 5875 5875 5874 5874 5874 5874 5873 5873 5873 5872 5872 5872 5873 5873 5874 5874 5874 5875 5875 5876 5877 5877 5878 5879 5879 5880 5881 5882 5882 5883 5884 5884 5885 5886
5884 5883 5882 5880 5879 5878 5877 5876 5875 5874 5874 5873 5873 5873 5872 5872 5871 5871 5871 5870 5870 5871 5871 5872 5872 5872 5873 5873 5874 5874 5875 5876 5877 5877 5878 5879 5879 5880 5881 5881 5882 5883 5884
5884 5883 5882 5880 5879 5878 5877 5876 5874 5873 5873 5872 5872 5871 5871 5871 5870 5870 5869 5869 5869 5869 5869 5870 5870 5870 5871 5871 5871 5872 5873 5873 5874 5875 5875 5876 5877 5877 5878 5879 5880 5881 5881
5885 5883 5882 5880 5879 5878 5877 5876 5874 5873 5872 5872 5871 5870 5870 5869 5868 5868 5868 5867 5867 5867 5867 5867 5867 5868 5868 5869 5869 5869 5870 5870 5871 5872 5872 5873 5874 5874 5875 5876 5877 5878 5879
5885 5883 5882 5880 5879 5878 5877 5875 5874 5873 5872 5871 5870 5869 5868 5867 5866 5866 5866 5865 5865 5865 5865 5865 5865 5865 5865 5866 5866 5866 5867 5867 5868 5868 5869 5870 5870 5871 5872 5873 5874 5875 5876
5885 5883 5882 5880 5878 5877 5876 5875 5873 5872 5871 5870 5869 5867 5866 5865 5864 5864 5864 5863 5863 5863 5862 5862 5862 5862 5862 5862 5862 5862 5863 5864 5864 5865 5865 5866 5867 5868 5869 5869 5870 5871 5872
5885 5883 5882 5880 5879 5877 5876 5874 5873 5872 5870 5869 5867 5866 5865 5864 5863 5862 5861 5861 5860 5860 5859 5859 5858 5858 5858 5858 5858 5858 5859 5860 5861 5861 5862 5863 5863 5864 5865 5866 5867 5868 5869
5884 5883 5881 5880 5878 5877 5875 5873 5872 5871 5869 5868 5866 5865 5864 5862 5861 5860 5859 5859 5858 5857 5856 5855 5855 5854 5855 5855 5854 5855 5855 5856 5856 5857 5858 5859 5860 5861 5861 5862 5863 5864 5865
5884 5882 5881 5879 5878 5876 5875 5873 5872 5870 5869 5867 5865 5864 5862 5861 5859 5858 5857 5856 5855 5854 5853 5852 5852 5851 5851 5851 5851 5851 5852 5853 5853 5854 5854 5855 5856 5857 5858 5858 5859 5860 5861
5884 5882 5880 5879 5877 5875 5874 5872 5871 5869 5867 5866 5864 5863 5861 5859 5858 5856 5855 5854 5853 5851 5850 5849 5849 5848 5847 5847 5847 5848 5848 5848 5849 5850 5850 5851 5852 5853 5853 5854 5855 5856 5857
5883 5881 5880 5878 5876 5875 5873 5871 5870 5868 5866 5864 5863 5861 5859 5857 5855 5854 5852 5851 5850 5848 5847 5846 5845 5845 5844 5844 5843 5844 5844 5844 5845 5846 5846 5846 5847 5848 5849 5850 5850 5851 5852
5882 5880 5879 5877 5875 5873 5871 5870 5868 5866 5865 5863 5861 5859 5857 5855 5853 5851 5850 5848 5847 5845 5843 5842 5841 5841 5840 5840 5840 5840 5840 5840 5840 5841 5841 5842 5842 5843 5844 5845 5845 5846 5847
5881 5879 5877 5876 5874 5872 5870 5868 5867 5865 5863 5861 5859 5856 5854 5853 5851 5849 5847 5845 5843 5842 5840 5838 5837 5837 5837 5836 5836 5836 5836 5836 5836 5836 5837 5837 5837 5838 5839 5840 5840 5841 5842